CAPE
0 0 0 0 6 22 2 5 1 4 44 2 0 5 0 0 0 0 0 0 2 0 0 0 3 2 7 1 0 0 0 0 0 0 0 0 0 0 0 2 0 2 0 0
4 3 1 0 3 28 11 2 4 0 25 0 0 0 0 0 0 0 0 0 0 2 1 0 0 14 0 0 1 8 1 0 0 0 2 4 0 0 6 7 4 0 0 0
6 11 5 3 5 24 13 1 1 0 1 2 0 0 0 4 2 8 0 0 0 0 0 0 0 0 0 0 0 0 15 14 1 0 0 3 1 2 11 25 6 0 1 0
8 8 11 5 9 35 26 0 0 0 0 0 0 0 0 2 5 6 1 0 4 0 0 0 0 0 0 0 0 1 2 18 10 0 0 0 2 23 2 6 18 1 0 6
5 6 10 8 5 36 37 11 9 14 0 0 4 1 0 0 1 6 0 0 3 9 21 1 0 0 0 0 0 0 27 6 1 0 0 0 23 10 0 0 0 0 0 0
10 9 13 13 3 27 9 1 5 14 13 3 2 1 0 0 2 8 1 0 2 0 0 0 1 0 0 0 0 0 1 0 0 0 0 0 0 0 0 0 0 0 0 0
13 11 14 9 1 35 4 3 20 17 0 5 5 10 1 0 1 1 5 44 13 0 13 0 0 1 10 0 0 0 6 0 6 0 0 0 0 0 0 0 0 0 0 1
25 22 22 21 34 59 20 13 28 12 0 11 18 5 0 1 2 12 7 0 35 9 9 1 0 0 0 0 0 0 0 1 3 5 0 0 0 0 0 13 4 0 2 1
3 3 3 6 5 19 58 21 0 7 6 0 4 0 6 0 0 0 7 0 45 4 0 1 0 0 0 0 0 0 0 0 7 0 0 0 0 0 0 0 0 0 3 1
3 4 7 6 14 2 24 19 0 21 0 0 1 0 0 4 3 1 52 44 21 118 7 0 0 2 1 0 0 2 0 2 0 0 3 0 0 0 0 0 0 1 0 23
0 5 7 5 14 15 58 10 16 7 18 10 28 37 3 0 1 3 1 35 26 38 1 2 2 0 1 5 0 0 6 2 0 0 2 1 0 0 0 13 41 2 1 15
0 1 2 0 35 40 12 30 27 30 13 33 64 75 19 25 119 35 60 45 43 28 0 0 17 6 3 3 0 0 0 0 1 1 3 0 0 0 0 5 4 3 3 0
6 3 2 0 10 12 7 5 0 0 1 2 2 2 0 16 142 83 127 114 53 31 54 77 52 1 8 0 2 2 0 13 20 9 0 0 0 15 26 10 0 0 0 0
7 9 6 4 8 8 12 5 6 8 0 1 0 0 0 0 11 64 160 18 49 93 122 91 45 22 1 2 24 0 3 25 15 12 11 43 52 64 83 4 0 0 0 0
6 7 9 4 3 17 20 37 42 16 5 9 3 0 0 0 0 1 18 54 56 48 50 22 6 1 1 4 2 0 0 0 5 2 56 20 105 52 3 23 0 0 0 0
16 9 18 3 1 37 2 0 1 0 0 0 1 15 2 0 0 4 34 35 40 58 60 7 3 48 63 3 0 0 50 112 95 55 92 5 0 0 2 16 0 0 0 0
10 5 21 1 0 12 39 9 4 0 0 0 0 0 0 5 0 0 2 14 12 49 36 8 7 60 58 6 0 0 0 0 0 0 0 0 0 0 0 0 0 0 0 0
1 0 7 0 0 0 27 0 0 1 0 0 1 3 0 0 8 10 20 22 52 58 43 26 28 33 34 0 0 28 103 6 1 0 0 0 0 0 0 0 0 0 0 0
3 0 1 0 6 11 0 0 0 0 11 1 0 1 4 0 9 5 0 3 0 16 8 7 22 9 4 0 0 8 0 5 0 1 0 0 0 0 0 0 0 0 0 0
6 0 5 2 11 0 0 4 6 0 11 3 0 7 2 0 0 0 0 1 5 3 0 0 4 0 0 0 7 49 3 0 0 1 1 0 0 0 0 0 0 0 0 0
8 23 8 31 0 7 5 0 0 1 2 2 0 0 0 0 0 5 11 6 13 8 9 0 1 0 0 92 7 0 0 0 0 0 0 0 0 0 0 0 0 0 0 0
13 8 9 4 1 0 0 0 0 1 1 2 2 3 2 0 0 14 1 26 16 12 0 1 3 2 4 0 0 0 0 0 0 0 0 0 0 0 0 0 0 0 0 0
0 0 1 0 1 1 1 0 2 0 0 7 6 0 0 0 0 2 13 0 3 10 12 1 4 0 0 0 0 0 0 0 0 0 0 0 0 0 0 0 0 0 0 0
0 0 0 0 0 0 4 1 0 1 18 23 2 1 2 2 0 1 0 0 2 0 0 1 1 1 0 0 0 0 0 0 0 0 0 0 0 0 0 0 0 0 0 0
1 1 4 4 2 0 0 0 0 1 7 37 19 8 7 1 0 0 0 0 0 0 0 2 1 0 0 0 0 0 0 0 0 0 2 1 0 0 0 1 0 0 0 0
10 1 3 12 1 0 0 2 0 2 17 32 7 0 0 0 0 0 0 0 0 1 2 2 1 0 0 0 0 0 0 0 0 0 0 1 0 1 0 0 0 0 0 0
3 0 0 0 2 0 0 0 1 6 23 1 0 0 0 1 0 0 0 0 1 0 2 0 1 0 0 0 0 0 0 0 0 0 1 0 0 0 0 1 0 0 0 0
CIN
-0 -0 -0 -0 -0 -0 -6 -0 -0 -0 -0 -0 -0 -0 -0 -0 -0 -0 -0 -0 -11 -0 -0 -0 -8 -2 -1 -2 -0 -0 -0 -0 -0 -0 -0 -0 -0 -0 -0 -18 -0 -4 -0 -0
-0 -0 -0 -0 -0 -0 -1 -2 -2 -0 -0 -0 -0 -0 -0 -1 -0 -0 -0 -0 -0 -10 -4 -0 -0 -1 -0 -0 -27 -6 -1 -4 -0 -0 -2 -10 -0 -0 -1 -6 -17 -0 -0 -0
-0 -0 -0 -0 -0 -0 -0 -2 -1 -0 -0 -0 -0 -0 -1 -1 -0 -6 -0 -0 -7 -0 -0 -0 -0 -0 -0 -0 -0 -0 -38 -3 -0 -0 -0 -12 -1 -0 -8 -4 -0 -0 -0 -0
-0 -0 -0 -0 -0 -0 -1 -2 -0 -0 -0 -0 -0 -0 -0 -1 -3 -5 -8 -0 -9 -2 -0 -0 -0 -0 -0 -0 -0 -23 -22 -14 -8 -3 -0 -0 -34 -31 -14 -10 -18 -13 -0 -8
-0 -0 -0 -0 -0 -0 -0 -0 -1 -5 -0 -0 -0 -0 -0 -2 -4 -4 -0 -0 -21 -3 -2 -30 -0 -0 -0 -0 -0 -0 -8 -34 -38 -0 -0 -0 -35 -67 -0 -0 -0 -0 -0 -0
-0 -0 -0 -1 -0 -0 -1 -0 -1 -2 -0 -0 -0 -0 -0 -0 -1 -4 -2 -0 -15 -9 -0 -3 -2 -0 -0 -0 -0 -0 -3 -0 -0 -0 -0 -0 -0 -0 -0 -0 -0 -0 -0 -0
-0 -0 -0 -1 -0 -0 -2 -4 -0 -18 -0 -1 -1 -1 -0 -0 -1 -8 -3 -12 -11 -0 -21 -0 -0 -1 -6 -1 -0 -0 -7 -0 -0 -0 -0 -1 -0 -0 -0 -0 -0 -0 -0 -0
-0 -0 -0 -1 -0 -0 -0 -0 -0 -1 -0 -9 -3 -1 -0 -0 -1 -12 -4 -0 -28 -8 -13 -0 -0 -0 -0 -0 -0 -0 -0 -0 -0 -2 -0 -2 -0 -0 -0 -0 -4 -0 -10 -2
-0 -0 -0 -0 -0 -12 -0 -0 -0 -0 -0 -0 -1 -0 -1 -0 -0 -0 -20 -6 -57 -77 -2 -7 -0 -0 -0 -0 -0 -0 -0 -0 -1 -8 -0 -0 -0 -0 -0 -3 -0 -0 -18 -1
-0 -0 -0 -0 -31 -25 -9 -1 -0 -0 -0 -0 -0 -0 -0 -0 -2 -3 -2 -35 -4 -7 -3 -0 -0 -1 -0 -0 -0 -6 -0 -0 -0 -0 -0 -0 -0 -0 -0 -0 -0 -8 -0 -43
-0 -0 -0 -0 -29 -0 -0 -0 -8 -0 -0 -2 -1 -2 -9 -0 -0 -0 -39 -1 -1 -0 -0 -0 -0 -0 -23 -18 -10 -3 -11 -27 -0 -0 -1 -0 -0 -0 -0 -21 -15 -16 -13 -36
-0 -0 -0 -0 -0 -0 -0 -19 -2 -0 -7 -5 -4 -5 -14 -54 -8 -8 -1 -5 -5 -7 -0 -0 -3 -23 -21 -14 -1 -0 -0 -0 -5 -11 -9 -0 -0 -0 -0 -24 -34 -33 -27 -0
-0 -0 -0 -0 -0 -0 -0 -0 -0 -0 -0 -8 -1 -13 -0 -44 -29 -53 -1 -2 -2 -26 -14 -2 -4 -2 -9 -0 -6 -0 -0 -7 -1 -3 -0 -0 -0 -8 -9 -43 -0 -0 -0 -0
-0 -0 -0 -0 -0 -0 -0 -0 -0 -2 -0 -0 -0 -0 -0 -11 -67 -25 -13 -23 -3 -12 -3 -2 -26 -30 -1 -0 -7 -0 -4 -32 -17 -12 -33 -14 -2 -4 -2 -1 -0 -0 -0 -0
-0 -0 -0 -0 -4 -2 -0 -0 -1 -4 -6 -10 -23 -0 -0 -0 -0 -71 -70 -27 -8 -7 -25 -75 -77 -1 -1 -9 -12 -0 -3 -0 -3 -2 -6 -10 -16 -21 -21 -2 -0 -0 -0 -0
-0 -0 -0 -10 -9 -13 -47 -0 -3 -0 -0 -2 -37 -73 -118 -0 -0 -145 -78 -67 -39 -28 -34 -72 -47 -9 -2 -5 -0 -0 -4 -9 -25 -6 -25 -59 -1 -0 -0 -1 -0 -0 -0 -0
-0 -4 -2 -2 -0 -11 -0 -19 -59 -0 -0 -0 -0 -0 -0 -48 -0 -0 -1 -1 -6 -7 -3 -0 -18 -0 -5 -9 -0 -0 -0 -8 -0 -0 -0 -0 -0 -0 -0 -0 -0 -0 -0 -0
-1 -0 -2 -0 -6 -7 -9 -0 -0 -1 -0 -0 -0 -7 -0 -2 -0 -1 -5 -6 -2 -3 -3 -11 -3 -7 -14 -0 -0 -13 -10 -7 -1 -0 -0 -0 -0 -0 -0 -0 -0 -0 -0 -0
-1 -0 -1 -0 -3 -0 -0 -0 -0 -0 -2 -0 -0 -0 -2 -0 -0 -2 -1 -0 -0 -3 -0 -2 -0 -4 -0 -0 -0 -17 -0 -7 -0 -0 -0 -0 -0 -0 -0 -0 -0 -0 -0 -0
-0 -0 -1 -2 -2 -0 -0 -9 -0 -4 -0 -0 -0 -3 -4 -0 -0 -0 -0 -0 -4 -2 -0 -0 -1 -0 -0 -0 -1 -11 -2 -0 -0 -0 -0 -0 -0 -0 -0 -0 -0 -0 -0 -0
-1 -0 -2 -1 -0 -0 -0 -0 -0 -0 -0 -0 -0 -0 -0 -0 -0 -0 -3 -3 -6 -1 -16 -0 -0 -0 -8 -7 -5 -0 -0 -0 -0 -0 -0 -0 -0 -0 -0 -0 -0 -0 -0 -0
-5 -3 -2 -0 -0 -0 -0 -0 -0 -0 -0 -0 -0 -11 -14 -0 -0 -0 -8 -1 -2 -7 -0 -0 -4 -5 -12 -0 -0 -0 -0 -0 -0 -0 -0 -0 -0 -0 -0 -0 -0 -0 -0 -0
-3 -4 -0 -0 -0 -0 -0 -0 -0 -0 -0 -0 -0 -0 -0 -0 -0 -0 -9 -2 -1 -4 -1 -2 -3 -0 -0 -0 -0 -0 -0 -0 -0 -0 -0 -0 -0 -0 -0 -0 -0 -0 -0 -0
-0 -0 -0 -0 -0 -0 -1 -3 -0 -3 -8 -0 -2 -0 -0 -1 -0 -0 -0 -0 -11 -0 -0 -1 -0 -0 -0 -0 -0 -0 -0 -0 -0 -0 -0 -0 -0 -0 -0 -0 -0 -0 -0 -0
-0 -0 -0 -0 -0 -0 -0 -0 -0 -0 -12 -0 -2 -1 -1 -6 -0 -0 -0 -0 -0 -0 -2 -0 -0 -0 -0 -0 -0 -0 -0 -0 -0 -0 -0 -0 -0 -0 -0 -0 -0 -0 -0 -0
-0 -0 -1 -0 -2 -0 -0 -3 -1 -1 -0 -2 -3 -0 -0 -0 -0 -0 -0 -0 -0 -0 -0 -0 -4 -0 -0 -0 -0 -0 -0 -0 -0 -0 -0 -0 -0 -0 -0 -0 -1 -0 -0 -0
-0 -0 -0 -0 -0 -0 -3 -0 -5 -0 -0 -5 -0 -0 -0 -0 -0 -0 -0 -0 -0 -0 -0 -0 -3 -0 -0 -0 -0 -0 -0 -0 -0 -0 -0 -0 -0 -0 -0 -0 -0 -0 -0 -0
Wind_Speed
28 28 28 28 27 24 23 26 39 28 28 37 37 47 42 40 40 37 33 33 40 44 43 38 40 40 32 23 21 30 26 26 31 29 21 25 22 26 26 32 34 32 38 41
29 28 28 28 26 22 23 30 35 34 35 44 39 41 43 37 38 39 34 30 31 29 36 42 37 30 20 20 20 24 22 29 33 30 25 25 28 29 27 29 32 39 41 41
29 28 29 29 27 23 22 29 37 37 37 46 41 38 39 35 29 33 25 30 30 32 33 31 26 22 16 17 16 16 17 24 32 36 32 25 28 28 30 33 38 40 38 40
30 30 29 29 27 24 21 25 37 39 40 44 42 42 34 34 32 27 23 26 30 30 34 32 29 14 19 19 17 18 19 31 28 29 30 31 30 33 38 39 38 35 40 37
31 31 29 27 26 25 27 29 32 35 47 36 45 44 45 41 35 27 25 28 23 26 30 28 35 35 31 30 26 25 23 33 33 39 37 38 39 39 40 37 34 37 43 41
32 32 30 28 26 22 28 27 35 42 41 40 42 44 47 38 29 28 21 20 30 29 28 27 28 32 34 37 36 35 33 34 38 50 44 46 50 43 38 36 35 36 42 37
33 32 31 29 25 22 25 26 31 40 53 42 42 40 32 36 35 34 21 22 25 30 17 21 24 25 29 31 35 34 36 35 34 45 40 52 42 38 35 41 41 41 40 39
32 32 31 29 24 22 24 28 35 38 40 38 38 32 40 43 44 29 26 21 11 12 18 26 33 36 39 41 42 37 33 35 38 36 34 35 35 30 28 33 36 36 35 35
30 33 35 32 29 28 29 39 37 37 42 41 39 32 36 36 31 22 20 15 9 12 16 18 23 27 28 29 28 23 29 32 34 32 32 36 34 31 31 33 39 32 30 31
31 36 41 46 21 21 35 42 44 41 33 26 24 27 30 21 21 18 13 12 11 8 13 21 28 28 23 27 25 22 21 26 35 39 39 38 40 39 38 44 38 27 27 30
38 43 45 41 19 37 43 46 46 43 34 29 27 26 27 23 18 19 13 11 14 14 17 19 21 25 24 26 26 26 23 23 27 31 36 42 27 30 32 29 26 26 25 24
33 33 30 34 37 36 36 32 32 34 28 24 22 18 15 18 18 15 12 17 13 15 17 21 20 26 27 29 37 29 37 28 28 22 22 19 21 20 23 24 23 20 20 16
23 22 28 29 33 36 37 26 17 26 24 23 23 20 14 13 12 13 14 19 15 14 16 21 22 25 28 32 34 35 33 32 34 34 32 32 30 24 21 21 20 19 17 13
17 15 21 33 37 38 26 20 23 14 12 17 18 17 19 14 14 14 11 10 12 12 14 19 24 26 23 27 27 29 29 27 24 30 31 34 23 23 22 17 20 21 17 13
13 11 21 25 15 11 15 15 13 10 13 11 8 10 14 16 19 16 16 16 14 15 19 23 25 23 24 25 25 35 30 33 33 33 28 24 28 25 35 16 15 13 11 13
11 11 23 11 9 10 7 10 11 9 10 11 13 14 15 20 18 16 15 13 16 17 20 22 20 20 24 26 31 30 26 27 27 22 22 23 22 22 21 11 11 9 8 10
13 12 9 13 12 9 10 10 11 8 11 13 15 17 19 20 17 18 17 17 20 20 20 22 24 29 26 30 35 34 37 30 27 24 22 23 21 22 19 15 11 10 9 8
16 17 12 10 14 12 9 10 10 9 11 16 19 19 19 16 17 20 13 15 15 19 21 23 28 27 26 34 32 32 34 25 20 23 19 23 20 17 14 12 9 9 8 7
18 1 3 8 15 13 11 11 12 12 14 19 20 20 20 10 12 12 13 15 22 23 30 32 26 27 29 30 30 30 15 17 19 18 17 15 14 13 13 11 10 8 8 6
10 2 11 15 11 9 8 13 15 15 16 17 20 21 23 17 12 17 16 20 28 28 34 26 32 35 34 34 29 17 11 15 15 14 14 12 13 12 12 11 9 8 6 4
3 13 13 9 4 11 15 19 20 21 20 21 22 29 20 21 23 27 28 26 27 26 26 29 28 29 31 21 15 10 11 11 14 16 15 13 11 10 10 10 10 8 6 5
14 11 11 14 20 19 20 20 19 20 20 21 23 23 27 24 26 29 31 26 25 24 3 14 23 18 9 9 9 11 10 12 13 14 12 12 11 10 10 10 9 8 7 6
20 19 20 19 20 21 20 20 19 19 18 21 19 21 22 25 25 17 16 19 20 12 18 19 16 9 10 10 10 8 10 11 12 13 13 12 12 12 11 11 10 9 8 6
18 19 19 19 17 20 19 17 14 16 16 20 24 14 16 16 15 17 19 18 19 21 25 22 12 11 8 9 7 7 9 10 11 12 12 12 13 13 13 11 10 9 8 7
15 16 16 17 17 18 18 19 17 16 16 17 15 15 13 14 14 16 17 21 24 24 21 18 12 9 6 7 7 7 8 9 10 10 11 12 13 13 14 14 14 13 11 9
16 17 18 16 17 17 17 17 18 18 17 16 16 14 14 16 14 17 19 19 22 19 17 13 9 6 5 6 6 7 8 9 9 10 11 12 13 14 14 14 14 13 13 12
17 17 17 19 17 16 17 17 17 18 16 16 15 16 16 13 18 18 18 21 19 15 14 14 7 4 4 5 7 8 8 9 9 10 10 11 11 13 14 14 13 13 12 12
Wind_Direction
297 300 302 302 304 306 297 281 264 271 248 243 252 249 255 261 261 269 286 279 274 270 261 266 261 266 270 275 257 247 242 270 264 255 263 266 267 262 265 272 280 283 286 284
294 297 299 300 302 303 298 279 269 259 254 249 253 248 256 262 260 263 266 274 274 280 270 267 265 270 282 287 275 259 242 263 264 262 261 263 263 270 271 269 280 279 280 284
293 295 296 295 297 298 295 284 269 258 259 252 249 246 249 255 255 259 264 271 278 274 271 275 276 276 274 284 291 290 275 262 260 262 265 274 273 274 278 279 275 277 276 285
291 292 294 293 292 293 289 281 269 255 251 248 247 243 250 248 251 250 266 271 267 267 266 266 267 273 286 278 282 287 280 266 267 269 274 278 279 280 281 279 280 274 282 285
291 292 293 293 291 288 278 277 267 253 248 262 243 241 244 247 254 245 249 259 268 270 264 267 269 276 282 276 275 275 283 272 277 274 274 278 280 279 277 278 275 281 282 282
291 291 291 288 288 283 278 276 268 258 252 253 253 240 241 249 251 251 243 245 255 266 270 273 275 277 276 275 275 275 278 277 275 272 275 280 274 268 273 275 275 280 281 287
290 290 289 287 283 273 275 274 265 252 243 252 254 241 238 245 247 256 250 251 259 270 277 281 283 282 282 283 279 276 274 275 277 277 277 269 273 275 274 277 282 282 283 287
292 290 290 286 279 269 266 267 252 249 245 253 249 237 240 242 248 255 257 259 266 290 278 276 275 275 277 274 273 271 270 272 274 278 275 278 278 281 285 287 283 285 291 293
295 293 289 283 275 267 263 252 245 246 244 258 240 233 237 247 252 248 256 267 270 285 278 285 276 274 280 280 284 270 266 267 265 269 279 278 280 286 292 295 285 293 293 294
299 294 286 268 235 235 252 238 235 238 249 253 243 235 239 242 244 260 227 252 251 243 269 277 275 278 284 279 283 284 275 270 266 270 276 281 282 286 290 282 285 305 304 303
282 274 273 267 204 198 222 225 221 228 239 245 243 242 242 248 240 240 237 246 263 258 269 278 281 278 283 282 283 286 285 286 279 279 276 279 302 296 284 299 295 301 305 310
267 260 227 200 184 173 180 232 226 223 235 240 239 244 248 251 245 251 241 263 253 269 273 278 287 281 286 285 280 288 276 280 286 289 297 309 315 314 307 307 307 313 315 319
255 236 192 208 189 161 190 216 204 224 232 235 238 237 252 254 252 266 248 262 278 283 286 280 287 289 292 288 289 287 288 289 282 285 287 292 294 294 301 303 306 311 314 319
246 191 206 166 167 172 195 202 208 229 238 237 241 247 251 259 262 273 287 302 306 297 300 287 284 290 304 298 296 289 291 295 300 294 291 289 302 304 300 299 300 300 305 306
229 215 188 186 199 204 208 204 228 256 255 249 245 266 260 260 261 272 276 284 295 293 288 290 291 295 298 296 296 274 283 285 286 290 297 303 300 299 290 299 302 310 310 309
233 216 191 209 214 207 224 232 254 260 275 257 260 271 269 257 265 272 277 282 286 289 291 292 295 292 287 286 275 277 284 295 302 311 310 307 309 305 298 319 323 326 323 324
235 230 227 215 221 267 258 259 258 295 290 282 281 279 276 277 274 273 279 286 284 284 287 287 288 272 278 273 274 276 275 291 298 309 310 305 306 299 300 311 326 333 339 338
225 218 232 237 227 248 296 306 300 312 318 300 286 285 285 289 280 278 286 291 284 279 279 282 268 267 270 266 275 277 281 282 297 294 312 296 305 308 316 321 332 333 336 340
227 59 328 275 264 284 322 353 359 341 318 290 292 281 284 295 294 294 285 277 266 267 256 250 264 262 259 259 257 258 307 299 297 303 317 324 320 323 326 329 331 334 330 341
95 64 276 274 299 37 4 320 308 321 305 288 265 239 234 244 282 264 258 257 244 247 241 255 244 234 249 241 252 297 315 305 306 319 324 335 328 329 332 333 336 338 352 11
282 267 276 309 348 315 286 248 220 209 219 221 222 209 250 251 239 217 212 211 203 224 222 201 239 245 236 263 281 317 320 334 322 319 330 334 338 343 344 341 340 357 15 18
228 238 226 215 204 200 197 201 209 215 221 219 211 228 210 215 206 195 199 212 210 225 17 262 253 270 281 290 312 325 328 336 339 342 342 341 352 358 356 349 346 351 1 4
168 177 179 187 192 199 206 206 212 213 217 205 212 198 200 192 205 236 247 241 243 269 263 268 284 308 303 310 312 346 349 349 348 341 342 357 360 1 1 360 0 359 355 356
189 196 204 213 215 210 211 226 232 219 221 194 173 229 229 234 249 244 249 259 255 253 239 257 307 313 320 322 330 352 354 349 351 350 359 8 16 19 19 20 18 11 358 344
219 223 224 219 227 224 229 225 228 229 223 222 231 248 269 261 266 263 254 231 217 227 264 297 322 337 339 342 348 359 0 355 358 12 21 29 40 43 46 49 49 46 42 26
241 239 235 239 233 232 233 231 229 227 226 236 240 276 281 268 279 264 262 264 251 285 298 320 335 349 349 352 360 3 13 19 26 30 34 41 51 60 61 59 59 62 71 74
258 252 262 245 249 253 248 246 248 247 257 264 288 280 283 304 273 274 279 256 283 312 320 310 345 15 23 12 26 35 33 34 31 33 35 41 49 57 66 65 61 65 70 76